When you browse on this site, cookies collect data to enhance your experience and personalize the content and advertising you see.
Visit our Privacy Policy to learn more. By continuing to use the site, you agree to this use of cookies and data.

Meteo pe oră la Dziektarzew

Astăzi, 18 Septembrie, Vineri

Timp Temperatura Precipitaţii Vânt Presiune Umiditate
00:00 +9°C° 0 mm 2 m/s 755 mmHg 76%
01:00 +8°C° 0 mm 2 m/s 756 mmHg 78%
02:00 +8°C° 0 mm 2 m/s 755 mmHg 78%
03:00 +7°C° 0 mm 2 m/s 755 mmHg 78%
04:00 +7°C° 0 mm 2 m/s 755 mmHg 78%
05:00 +8°C° 0 mm 2 m/s 756 mmHg 75%
06:00 +8°C° 0 mm 2 m/s 756 mmHg 73%
07:00 +9°C° 0 mm 2 m/s 756 mmHg 68%
08:00 +10°C° 0 mm 2 m/s 756 mmHg 61%
09:00 +12°C° 0 mm 3 m/s 756 mmHg 55%
10:00 +14°C° 0 mm 3 m/s 756 mmHg 48%
11:00 +16°C° 0 mm 3 m/s 756 mmHg 45%
12:00 +17°C° 0 mm 3 m/s 756 mmHg 42%
13:00 +18°C° 0 mm 3 m/s 756 mmHg 39%
14:00 +17°C° 0 mm 3 m/s 756 mmHg 40%
15:00 +17°C° 0 mm 3 m/s 755 mmHg 41%
16:00 +17°C° 0 mm 3 m/s 755 mmHg 42%
17:00 +16°C° 0 mm 2 m/s 755 mmHg 46%
18:00 +14°C° 0 mm 2 m/s 755 mmHg 50%
19:00 +13°C° 0 mm 1 m/s 755 mmHg 54%
20:00 +12°C° 0 mm 1 m/s 755 mmHg 55%
21:00 +12°C° 0 mm 1 m/s 755 mmHg 56%
22:00 +11°C° 0 mm 0 m/s 755 mmHg 58%
23:00 +10°C° 0 mm 0 m/s 755 mmHg 58%

Mâine, 19 Septembrie, Sâmbătă

Timp Temperatura Precipitaţii Vânt Presiune Umiditate
00:00 +10°C° 0 mm 0 m/s 755 mmHg 59%
01:00 +10°C° 0 mm 0 m/s 755 mmHg 60%
02:00 +9°C° 0 mm 0 m/s 755 mmHg 61%
03:00 +9°C° 0 mm 0 m/s 754 mmHg 62%
04:00 +9°C° 0 mm 0 m/s 754 mmHg 63%
05:00 +9°C° 0 mm 0 m/s 754 mmHg 61%
06:00 +10°C° 0 mm 0 m/s 754 mmHg 60%
07:00 +11°C° 0 mm 0 m/s 754 mmHg 59%
08:00 +14°C° 0 mm 1 m/s 754 mmHg 53%
09:00 +15°C° 0 mm 1 m/s 754 mmHg 47%
10:00 +18°C° 0 mm 1 m/s 754 mmHg 41%
11:00 +19°C° 0 mm 1 m/s 754 mmHg 39%
12:00 +20°C° 0 mm 1 m/s 753 mmHg 36%
13:00 +21°C° 0 mm 1 m/s 753 mmHg 33%
14:00 +21°C° 0 mm 1 m/s 753 mmHg 34%
15:00 +20°C° 0 mm 2 m/s 752 mmHg 35%
16:00 +20°C° 0 mm 2 m/s 752 mmHg 36%
17:00 +18°C° 0 mm 2 m/s 752 mmHg 41%
18:00 +16°C° 0 mm 2 m/s 752 mmHg 45%
19:00 +14°C° 0 mm 2 m/s 751 mmHg 49%
20:00 +14°C° 0 mm 2 m/s 751 mmHg 50%
21:00 +13°C° 0 mm 2 m/s 752 mmHg 51%
22:00 +13°C° 0 mm 2 m/s 752 mmHg 52%
23:00 +13°C° 0 mm 2 m/s 752 mmHg 53%

Poimâine, 20 Septembrie, Duminică

Timp Temperatura Precipitaţii Vânt Presiune Umiditate
00:00 +12°C° 0 mm 2 m/s 751 mmHg 54%
01:00 +12°C° 0 mm 2 m/s 751 mmHg 55%
02:00 +12°C° 0 mm 2 m/s 751 mmHg 55%
03:00 +10°C° 0 mm 3 m/s 751 mmHg 56%
04:00 +10°C° 0 mm 3 m/s 751 mmHg 57%
05:00 +11°C° 0 mm 3 m/s 751 mmHg 58%
06:00 +11°C° 0 mm 3 m/s 751 mmHg 59%
07:00 +11°C° 0 mm 3 m/s 751 mmHg 60%
08:00 +13°C° 0 mm 3 m/s 751 mmHg 56%
09:00 +16°C° 0 mm 3 m/s 751 mmHg 52%
10:00 +18°C° 0 mm 4 m/s 750 mmHg 48%
11:00 +18°C° 0 mm 4 m/s 750 mmHg 47%
12:00 +19°C° 0 mm 4 m/s 750 mmHg 45%
13:00 +20°C° 0 mm 4 m/s 750 mmHg 43%
14:00 +20°C° 0 mm 4 m/s 750 mmHg 46%
15:00 +20°C° 0 mm 3 m/s 749 mmHg 48%
16:00 +19°C° 0 mm 3 m/s 749 mmHg 51%
17:00 +18°C° 0 mm 3 m/s 749 mmHg 55%
18:00 +17°C° 0 mm 3 m/s 749 mmHg 59%
19:00 +14°C° 0 mm 3 m/s 749 mmHg 64%
20:00 +14°C° 0 mm 3 m/s 749 mmHg 66%
21:00 +13°C° 0 mm 3 m/s 749 mmHg 69%
22:00 +13°C° 0 mm 3 m/s 749 mmHg 72%
23:00 +13°C° 0 mm 2 m/s 749 mmHg 75%

21 Septembrie, Luni

Timp Temperatura Precipitaţii Vânt Presiune Umiditate
00:00 +13°C° 0 mm 2 m/s 749 mmHg 77%
01:00 +13°C° 0 mm 2 m/s 749 mmHg 80%
02:00 +12°C° 0 mm 2 m/s 749 mmHg 82%
03:00 +12°C° 0 mm 2 m/s 749 mmHg 84%
04:00 +11°C° 0 mm 1 m/s 749 mmHg 85%
05:00 +12°C° 0 mm 1 m/s 749 mmHg 83%
06:00 +13°C° 0 mm 1 m/s 749 mmHg 81%
07:00 +13°C° 0 mm 1 m/s 749 mmHg 79%
08:00 +15°C° 0 mm 1 m/s 749 mmHg 71%
09:00 +18°C° 0 mm 1 m/s 749 mmHg 63%
10:00 +20°C° 0 mm 1 m/s 749 mmHg 55%
11:00 +22°C° 0 mm 1 m/s 749 mmHg 50%
12:00 +23°C° 0 mm 1 m/s 748 mmHg 45%
13:00 +24°C° 0 mm 1 m/s 748 mmHg 40%
14:00 +24°C° 0 mm 1 m/s 748 mmHg 40%
15:00 +24°C° 0 mm 1 m/s 748 mmHg 40%
16:00 +24°C° 0 mm 1 m/s 747 mmHg 41%
17:00 +23°C° 0 mm 1 m/s 747 mmHg 44%
18:00 +21°C° 0 mm 1 m/s 747 mmHg 48%
19:00 +19°C° 0 mm 1 m/s 747 mmHg 52%
20:00 +18°C° 0 mm 2 m/s 747 mmHg 54%
21:00 +17°C° 0 mm 2 m/s 747 mmHg 56%
22:00 +17°C° 0 mm 3 m/s 747 mmHg 58%
23:00 +17°C° 0 mm 3 m/s 747 mmHg 60%

22 Septembrie, Marţi

Timp Temperatura Precipitaţii Vânt Presiune Umiditate
00:00 +16°C° 0 mm 3 m/s 747 mmHg 61%
01:00 +16°C° 0 mm 3 m/s 746 mmHg 63%
02:00 +16°C° 0 mm 3 m/s 746 mmHg 63%
03:00 +16°C° 0 mm 3 m/s 746 mmHg 63%
04:00 +14°C° 0 mm 3 m/s 745 mmHg 64%
05:00 +15°C° 0 mm 4 m/s 745 mmHg 63%
06:00 +15°C° 0 mm 4 m/s 745 mmHg 62%
07:00 +17°C° 0 mm 4 m/s 745 mmHg 61%
08:00 +19°C° 0 mm 4 m/s 745 mmHg 54%
09:00 +22°C° 0 mm 5 m/s 745 mmHg 47%
10:00 +24°C° 0 mm 6 m/s 745 mmHg 40%
11:00 +26°C° 0 mm 6 m/s 744 mmHg 38%
12:00 +26°C° 0 mm 7 m/s 744 mmHg 37%
13:00 +27°C° 0 mm 7 m/s 743 mmHg 35%
14:00 +27°C° 0 mm 6 m/s 743 mmHg 38%
15:00 +26°C° 0 mm 6 m/s 742 mmHg 41%
16:00 +26°C° 0 mm 5 m/s 742 mmHg 43%
17:00 +23°C° 0 mm 5 m/s 742 mmHg 46%
18:00 +22°C° 0 mm 4 m/s 742 mmHg 49%
19:00 +21°C° 0 mm 4 m/s 742 mmHg 52%
20:00 +20°C° 0 mm 4 m/s 742 mmHg 53%
21:00 +19°C° 0 mm 4 m/s 742 mmHg 54%
22:00 +19°C° 0 mm 3 m/s 742 mmHg 55%
23:00 +18°C° 0 mm 3 m/s 741 mmHg 56%

23 Septembrie, Miercuri

Timp Temperatura Precipitaţii Vânt Presiune Umiditate
00:00 +18°C° 0 mm 3 m/s 741 mmHg 56%
01:00 +18°C° 0 mm 3 m/s 741 mmHg 56%
02:00 +17°C° 0 mm 3 m/s 741 mmHg 57%
03:00 +17°C° 0 mm 3 m/s 741 mmHg 59%
04:00 +17°C° 0 mm 3 m/s 740 mmHg 60%
05:00 +17°C° 0 mm 4 m/s 740 mmHg 61%
06:00 +17°C° 0 mm 4 m/s 740 mmHg 63%
07:00 +17°C° 0 mm 4 m/s 740 mmHg 64%
08:00 +19°C° 0 mm 4 m/s 740 mmHg 61%
09:00 +21°C° 0 mm 4 m/s 740 mmHg 57%
10:00 +23°C° 0 mm 4 m/s 740 mmHg 54%
11:00 +25°C° 0 mm 4 m/s 740 mmHg 53%
12:00 +25°C° 0 mm 4 m/s 740 mmHg 52%
13:00 +26°C° 0 mm 5 m/s 740 mmHg 52%
14:00 +25°C° 0.1 mm 4 m/s 739 mmHg 54%
15:00 +23°C° 0.1 mm 4 m/s 739 mmHg 57%
16:00 +23°C° 0.1 mm 4 m/s 739 mmHg 60%
17:00 +21°C° 0 mm 4 m/s 739 mmHg 65%
18:00 +20°C° 0 mm 3 m/s 739 mmHg 70%
19:00 +19°C° 0 mm 3 m/s 739 mmHg 75%
20:00 +19°C° 0 mm 3 m/s 739 mmHg 76%
21:00 +18°C° 0 mm 3 m/s 739 mmHg 77%
22:00 +18°C° 0 mm 3 m/s 739 mmHg 79%
23:00 +18°C° 0 mm 3 m/s 739 mmHg 79%
Arată mai mult